Change the Weather History Date:

Sunday, August 10, 2014

  Actual Average Record
Temperature  
Mean Temperature 63 °F 61 °F  
Max Temperature 68 °F 68 °F 77 °F (1997)
Min Temperature 57 °F 54 °F 51 °F (1998)
Degree Days  
Heating Degree Days 2    
Month to date heating degree days 20  
Since 1 June heating degree days 190  
Since 1 July heating degree days 78  
Cooling Degree Days 0    
Month to date cooling degree days 1  
Year to date cooling degree days 69  
Since 1 June cooling degree days 27  
Growing Degree Days 12 (Base 50)    
Moisture  
Dew Point 55 °F    
Average Humidity 76    
Maximum Humidity 93    
Minimum Humidity 59    
Precipitation  
Precipitation 0.00 in - 0.02 in (2013)
Month to date precipitation 0.00  
Year to date precipitation 7.40  
Since 1 July precipitation 0.01  
Sea Level Pressure  
Sea Level Pressure 30.03 in    
Wind  
Wind Speed 5 mph (West)    
Max Wind Speed 14 mph    
Max Gust Speed 20 mph    
Visibility 10 miles    
Events      
T = Trace of Precipitation, MM = Missing Value Source: NWS Daily Summary

Daily Weather History Graph

Daily Weather History Graph

Search for Another Location

Airport or City:

Trip Planner

Search our weather history database for the weather conditions in past years. The results will help you decide how hot, cold, wet, or windy it might be!

Date:

Astronomy

Aug. 10, 2014 Rise Set
Actual Time 6:20 AM PDT 8:03 PM PDT
Civil Twilight 5:53 AM PDT 8:31 PM PDT
Nautical Twilight 5:19 AM PDT 9:05 PM PDT
Astronomical Twilight 4:43 AM PDT 9:40 PM PDT
Moon 7:57 PM PDT (8/10) 6:18 AM PDT (8/10)
Length of Visible Light 14h 38m
Length of Day
13h 43m
Full, 100% of the Moon is Illuminated
Aug 10
Full
Aug 17
Last Quarter
Aug 25
New
Sep 2
First Quarter
Sep 8
Full

Hourly Weather History & Observations

Time (PDT) Temp. Dew Point Humidity Pressure Visibility Wind Dir Wind Speed Gust Speed Precip Events Conditions
12:54 AM 57.9 °F 54.0 °F 87% 30.05 in 10.0 mi SW 5.8 mph - N/A   Overcast
2:54 AM 57.9 °F 55.0 °F 90% 30.03 in 9.0 mi WSW 5.8 mph - N/A   Overcast
3:54 AM 57.9 °F 54.0 °F 87% 30.02 in 10.0 mi WSW 4.6 mph - N/A   Overcast
4:54 AM 57.9 °F 53.1 °F 84% 30.02 in 10.0 mi WNW 4.6 mph - N/A   Overcast
5:54 AM 57.0 °F 53.1 °F 87% 30.03 in 10.0 mi West 3.5 mph - N/A   Overcast
6:54 AM 57.9 °F 54.0 °F 87% 30.04 in 10.0 mi Calm Calm - N/A   Overcast
7:54 AM 57.9 °F 55.0 °F 90% 30.06 in 7.0 mi Calm Calm - N/A   Overcast
8:54 AM 59.0 °F 55.0 °F 87% 30.06 in 10.0 mi Calm Calm - N/A   Overcast
9:43 AM 59.0 °F 55.4 °F 88% 30.04 in 10.0 mi WNW 3.5 mph - N/A   Overcast
9:54 AM 60.1 °F 55.0 °F 83% 30.07 in 10.0 mi Calm Calm - N/A   Overcast
10:54 AM 60.1 °F 55.0 °F 83% 30.09 in 10.0 mi West 4.6 mph - N/A   Overcast
11:03 AM 60.8 °F 55.4 °F 82% 30.05 in 10.0 mi NW 4.6 mph - N/A   Overcast
11:54 AM 62.1 °F 55.0 °F 78% 30.09 in 10.0 mi WNW 6.9 mph - N/A   Overcast
12:54 PM 64.9 °F 55.9 °F 73% 30.07 in 10.0 mi WNW 10.4 mph - N/A   Mostly Cloudy
12:58 PM 64.4 °F 55.4 °F 73% 30.03 in 10.0 mi WNW 9.2 mph - N/A   Scattered Clouds
1:54 PM 66.9 °F 55.0 °F 66% 30.05 in 10.0 mi West 11.5 mph - N/A   Scattered Clouds
2:33 PM 64.4 °F 55.4 °F 73% 30.02 in 10.0 mi WSW 9.2 mph - N/A   Mostly Cloudy
2:54 PM 66.0 °F 55.0 °F 68% 30.05 in 10.0 mi West 9.2 mph - N/A   Mostly Cloudy
3:10 PM 66.2 °F 53.6 °F 64% 30.00 in 10.0 mi West 10.4 mph - N/A   Scattered Clouds
3:54 PM 68.0 °F 54.0 °F 61% 30.03 in 10.0 mi West 10.4 mph - N/A   Clear
4:54 PM 66.0 °F 54.0 °F 65% 30.02 in 10.0 mi WNW 9.2 mph - N/A   Clear
5:54 PM 66.9 °F 55.0 °F 66% 30.01 in 10.0 mi WSW 8.1 mph - N/A   Clear
6:54 PM 64.0 °F 55.0 °F 73% 30.01 in 10.0 mi WSW 9.2 mph - N/A   Clear
7:21 PM 62.6 °F 55.4 °F 77% 29.97 in 10.0 mi WSW 5.8 mph - N/A   Mostly Cloudy
7:54 PM 62.1 °F 55.0 °F 78% 30.01 in 10.0 mi WSW 4.6 mph - N/A   Overcast
8:54 PM 61.0 °F 55.0 °F 81% 30.01 in 10.0 mi WSW 4.6 mph - N/A   Overcast
9:54 PM 61.0 °F 55.9 °F 83% 30.02 in 10.0 mi SW 5.8 mph - N/A   Overcast
10:54 PM 61.0 °F 55.9 °F 83% 30.02 in 10.0 mi Calm Calm - N/A   Overcast
11:54 PM 61.0 °F 55.0 °F 81% 30.02 in 10.0 mi WNW 4.6 mph - N/A   Overcast